Regional Weather Roundup
Issued by NWS

Home | Current Version | Previous Version | Graphics & Text | Print | Product List | Glossary On
Versions: 1 2 3 4 5 6 7 8 9 10 11 12 13 14 15 16 17 18 19 20 21 22 23 24 25 26 27 28 29 30 31 32 33 34 35 36 37 38 39 40 41 42 43 44 45 46 47 48 49 50
380
ASUS45 KBOU 181710
RWRCO

WEATHER ROUNDUP FOR COLORADO
NATIONAL WEATHER SERVICE DENVER/BOULDER CO
1000 AM MST THU JAN 18 2018

NOTE: "FAIR" INDICATES FEW OR NO CLOUDS BELOW 12000 FEET WITH NO
SIGNIFICANT WEATHER AND/OR OBSTRUCTIONS TO VISIBILITY.

COZ001>005-013-030-031-181800-
...NORTHWEST COLORADO...

CITY           SKY/WX    TMP DP  RH WIND       PRES   REMARKS
CRAIG          FAIR      20  13  74 W7        30.35R WCI  11
HAYDEN         FAIR     N/A N/A N/A E13       30.35S
MEEKER         FAIR      24  20  84 CALM      30.34R
RABBIT EARS PA FAIR      23  19  86 W3        30.33S
STEAMBOAT SPGS FAIR      13  11  90 CALM      30.35S
WALDEN         FAIR      25  14  63 SE7       30.32S WCI  17
$$

COZ006>008-011-181800-
...WEST CENTRAL VALLEYS...

CITY           SKY/WX    TMP DP  RH WIND       PRES   REMARKS
GRAND JUNCTION FAIR      31  18  58 E7        30.37R WCI  24
MONTROSE       FAIR      30  14  51 CALM      30.39S
EAGLE          FAIR      17   9  70 NW3       30.45S
RIFLE          FAIR      24  16  71 SW3       30.38S
DELTA          FAIR      27  15  60 CALM      30.39S
NUCLA          FAIR      30  16  55 CALM      30.39S
$$

COZ017>023-064>068-181800-
...SOUTHWEST COLORADO...

CITY           SKY/WX    TMP DP  RH WIND       PRES   REMARKS
DURANGO        FAIR      27  19  72 CALM      30.33R
CORTEZ         FAIR      33  19  56 E5        30.35S WCI  29
PAGOSA SPRINGS FAIR      31  17  56 CALM      30.33R
TELLURIDE      FAIR      32   6  32 CALM      30.37R
WOLF CREEK PAS FAIR      30 -11  16 NW5       30.44R WCI  25
$$

COZ009-010-012-014-032>034-037-058>063-181800-
...CENTRAL COLORADO...

CITY           SKY/WX    TMP DP  RH WIND       PRES   REMARKS
ASPEN          FAIR      25  13  60 CALM      30.35S
BUENA VISTA    FAIR      35   8  32 CALM      30.29R
COPPER MTN     NOT AVBL
BERTHOUD PASS  FAIR      21  10  63 NW21G30   30.36S WCI   6
COTTONWOOD PAS   N/A     43   0  16 E3        30.31R
GUNNISON       FAIR      11   2  67 CALM      30.45S
KREMMLING      FAIR      14   7  73 CALM      30.45R
LEADVILLE      FAIR      32  -3  22 NE6       30.33R WCI  26
MONARCH PASS   FAIR      28  -6  22 W10       30.48R WCI  19
SALIDA         FAIR      35  10  34 N3        30.36S
SUNLIGHT       FAIR      30   5  34 SW5       30.41R WCI  25
WILKERSON PASS FAIR      34   0  23 N9G24     30.33R WCI  26
$$

COZ069>075-181800-
...SAN LUIS VALLEY/SANGRE DE CRISTO MOUNTAINS...

CITY           SKY/WX    TMP DP  RH WIND       PRES   REMARKS
ALAMOSA        FAIR      25   1  35 CALM      30.34R
DEL NORTE      FAIR      28   3  34 SE3       30.34R
LA VETA PASS   FAIR      30   5  34 SW23G29     N/A  WCI  17
SAGUACHE       FAIR      30  10  43 SE7       30.34R WCI  23
$$

COZ035-036-038>040-181800-
...NORTHERN COLORADO FRONT RANGE...

CITY           SKY/WX    TMP DP  RH WIND       PRES   REMARKS
DENVER INTL AP PTSUNNY   49  12  22 SW13      30.09S
DMNS CITY PARK NOT AVBL
AURORA         PTSUNNY   50   9  19 S12       30.11S
FRONT RANGE AP PTSUNNY   50  18  27 S16       30.11S
ERIE MUNI ARPT FAIR      38  20  47 CALM      30.16S
BOULDER MUN AP FAIR      41  18  38 NE3       30.10S
CENTENNIAL     PTSUNNY   52   3  13 S8        30.11F
BROOMFIELD     NOT AVBL
FORT COLLINS   FAIR      33  19  56 CALM      30.11R
LONGMONT       NOT AVBL
$$

COZ041-046-047-076>085-087-088-181800-
...PIKES PEAK/PALMER DIVIDE AND SOUTHERN FOOTHILLS...

CITY           SKY/WX    TMP DP  RH WIND       PRES   REMARKS
COLO. SPRINGS  PTSUNNY   51   6  16 CALM      30.17S
A. F. ACADEMY  FAIR      44   8  22 CALM      30.16F
SCHRIEVER AFB  FAIR      52   4  14 W3        30.17S
CHEYENNE MTN   FAIR      49   7  18 SE6       30.13S
ELLICOTT         N/A    N/A N/A N/A NW3       30.16R
FALCON         FAIR      50   2  14 SW6       30.18F
FORT CARSON    FAIR      47   9  21 CALM      30.15S
LIMON          FAIR      45  16  31 CALM      30.14S
MONUMENT HILL  FAIR      45  12  26 S6        30.18S
CANON CITY     FAIR      46  10  23 W17       30.16F
WALSENBURG     FAIR      54   9  16 W21G28    30.18R
TRINIDAD       FAIR      44   7  21 W12       30.19R
$$

COZ042>045-048>051-090-091-181800-
...NORTHEAST COLORADO...

CITY           SKY/WX    TMP DP  RH WIND       PRES   REMARKS
GREELEY ARPT   FAIR      30  18  60 W6        30.12R WCI  24
AKRON          FAIR      39  18  42 W15       30.08F
BURLINGTON     FAIR      52   8  17 W15       30.11R
WRAY           FAIR      41  19  42 MISG      30.08F
YUMA           FAIR      45  19  36 W12       30.08S
STERLING       FAIR      30  21  69 SW10      30.08S WCI  21
HOLYOKE        FAIR      41  25  52 W10       30.06S
FORT MORGAN    FAIR      33  17  50 SW10      30.10S WCI  25
$$

COZ086-089-092>099-181800-
...SOUTHEAST COLORADO...

CITY           SKY/WX    TMP DP  RH WIND       PRES   REMARKS
PUEBLO         FAIR      41  13  31 W6        30.16S
LA JUNTA       FAIR      36  14  40 W7        30.17R
LAMAR          FAIR      36  11  35 W12       30.16R
SPRINGFIELD    NOT AVBL
$$




USA.gov is the U.S. government's official web portal to all federal, state and local government web resources and services.